Regional Weather Roundup
Issued by NWS Sterling, VA

Home | Current Version | Previous Version | Text Only | Print | Product List | Glossary On
Versions: 1 2 3 4 5 6 7 8 9 10 11 12 13 14 15 16 17 18 19 20 21 22 23 24 25 26 27 28 29 30 31 32 33 34 35 36 37 38 39 40 41 42 43 44 45 46 47 48 49 50
000
ASUS41 KLWX 250810
RWRLWX

REGIONAL WEATHER ROUNDUP
NATIONAL WEATHER SERVICE BALTIMORE MD/WASHINGTON DC
400 AM EDT MON JUL 25 2016

Note: "FAIR" indicates few or no clouds below 12,000 feet
with no significant weather and/or obstructions to visibility.
 TC=TEMPERATURE CELSIUS

 * =Non NWS site. Station does not report precipitation (e.g. rain,
    snow, etc.), thunder, or fog.

DCZ001-MDZ009-015-VAZ040>042-051-053>054-250900-
WASHINGTON METRO

CITY           SKY/WX    TMP DP  RH WIND       PRES   REMARKS
WASHINGTON NAT CLOUDY    82  77  84 N3        29.96R HX  90
DULLES         MOCLDY    78  73  84 CALM      29.97S
ANDREWS AFB    CLOUDY    76  73  91 N6        29.96R
QUANTICO       FAIR      80  75  84 NW6       29.96R
COLLEGE PARK*  FAIR      73  72  94 CALM      29.96S
LEESBURG*      FAIR      77  73  88 W3        29.98S
MANASSAS*      FAIR      79  73  83 CALM      29.97S
GAITHERSBURG*  PTCLDY    75  70  83 CALM      30.01S

$$

MDZ006>007-011-014-250900-
BALTIMORE METRO

CITY           SKY/WX    TMP DP  RH WIND       PRES   REMARKS
BWI AIRPORT    CLOUDY    79  73  82 CALM      29.95F
MD SCIENCE CTR   N/A     83  75  77 MISG      29.96R HX  90
MARTIN STATE   TSTM      79  77  94 SW5G22    29.95F
ANNAPOLIS      CLOUDY    81  73  76 NW6       29.95R
FORT MEADE*    CLOUDY    73  72  94 CALM      29.98S

$$

MDZ012-015-019>023-250900-
MARYLAND EASTERN SHORE

CITY           SKY/WX    TMP DP  RH WIND       PRES   REMARKS
OCEAN CITY     CLOUDY   N/A N/A N/A S3        29.95F
SALISBURY      CLOUDY    80  75  84 CALM      29.96S
BAY BRIDGE AP* CLOUDY    81  72  74 SW3       29.95S
CAMBRIDGE*     CLOUDY    73  72  94 SW3       29.94S
EASTON*        CLOUDY    75  75  99 CALM      29.98S

$$

MDZ017>025-250900-
SOUTHERN MARYLAND

CITY           SKY/WX    TMP DP  RH WIND       PRES   REMARKS
PATUXENT RIVER PTCLDY    80  75  84 E3        29.96S
ST INIGOES     CLOUDY    85  76  74 SW6       29.95F HX  94
LEONARDTOWN*   CLOUDY    81  73  78 CALM      29.98F

$$

MDZ003>005-250900-
NORTH CENTRAL MARYLAND

CITY           SKY/WX    TMP DP  RH WIND       PRES   REMARKS
FREDERICK*     PTCLDY    73  73 100 CALM      29.99S FOG
HAGERSTOWN APT PTCLDY    77  71  82 CALM      29.98S

$$

MDZ501>502-250900-
WESTERN MARYLAND

CITY           SKY/WX    TMP DP  RH WIND       PRES   REMARKS
OAKLAND*       MOCLDY    70  68  94 SW6       30.13S
CUMBERLAND*    PTCLDY    73  73 100 CALM      30.04S

$$

VAZ025>031-250900-
SHENANDOAH VALLEY

CITY           SKY/WX    TMP DP  RH WIND       PRES   REMARKS
WINCHESTER*    FAIR      73  72  94 CALM      30.00S
FRONT ROYAL*   FAIR      73  72  94 CALM      30.00S
LURAY*         FAIR      73  73 100 CALM      30.02S
NEW MARKET*    FAIR     N/A N/A N/A CALM      30.01S
STAUNTON*      FAIR      70  69  95 CALM      30.06S
WAYNESBORO*    FAIR      71  69  94 CALM      30.06R

$$

WVZ021-048>050-054>055-250900-
EASTERN WEST VIRGINIA PANHANDLE

CITY           SKY/WX    TMP DP  RH WIND       PRES   REMARKS
MARTINSBURG    FAIR      74  71  91 CALM      29.98S
PETERSBURG*    FAIR      73  72  95 CALM      30.03S

$$

VAZ036>039-050-250900-
CENTRAL FOOTHILLS

CITY           SKY/WX    TMP DP  RH WIND       PRES   REMARKS
CHARLOTTESVILL FAIR      80  74  81 CALM      29.99R
CULPEPER*      FAIR      76  75  98 CALM      29.99R
ORANGE*          N/A     77  77 100 CALM      30.00S
GORDONSVILLE*  FAIR      76  75  98 CALM      29.99R
WARRENTON*     FAIR      76  71  84 CALM      29.98R

$$

VAZ055>057-250900-
NORTH AND CENTRAL PIEDMONT

CITY           SKY/WX    TMP DP  RH WIND       PRES   REMARKS
FREDERICKSBRG* FAIR      82  75  80 SW3       29.96R
STAFFORD*      FAIR      79  74  85 CALM      30.00S

$$

NCZ024-NYZ072-PAZ021-071-VAZ022-071-250900-
OTHER REGIONAL OBSERVATIONS

CITY           SKY/WX    TMP DP  RH WIND       PRES   REMARKS
NEW YORK CITY  CLOUDY    81  64  56 SW3       29.97S
PHILADELPHIA   CLOUDY    80  71  74 S8        29.94F
PITTSBURGH     MOCLDY    73  69  87 CALM      29.99F
ROANOKE        FAIR      76  69  79 CALM      30.07R
RICHMOND       FAIR      76  73  91 S6        29.99R
RALEIGH        CLEAR     78  75  90 SW6       30.02S

$$

ANZ530>537-250900-
MARINE OBSERVATIONS

STATION/POSITION TIME  TEMP    WIND        PRES
                       AIR SEA DIR/SP/G
                 (UTC) (F)     (DEG/KT/KT) (MB)
THOMAS PT LIGHT  0800   81 83  260/  7/  8 1015.5R
BALT KEY BRIDGE  0742   81     240/  1/  2 1014.4R
COVE POINT       0742   80     170/  6/  8 1014.9F
LEWISETTA        0742   83 87  250/  8/  9 1014.1F
SOLOMONS ISLAND  0742   81 86   90/  6/  8   N/A
PINEY POINT      0748          320/  3/  4   N/A

$$




USA.gov is the U.S. government's official web portal to all federal, state and local government web resources and services.